Погода в Охе

Погода в Охе : погода сейчас, прогноз погоды и архив. Всё, что Вы хотите узнать о погоде в Охе!

Хотите узнать прогноз погоды в Охе? Тогда Вам сюда: Погода в Охе

Поиск расширенной информации на нашем сайте:

Другие новости

Новости СМИ2

Главная страница сайта

Новости сайта

03.07.2017

Напоминаем, что на нашем специализированном сайте Метеоцентр.Азия вы можете получить высокодетализированные автоматические прогнозы погоды по пунктам России, СНГ и мира в авиационном формате (включающие направление и скорость ветра, видимость, явления погоды, количество и форму облачности, нижнюю и верхнюю границу облачности).


Погода в Охе - сегодня

Время (UTC), дата Ветер
(°,м/с) 
Видим.   Явления Облачность Т
(°С)
Тd
(°С)
f(%) Тe
(°С)
Pmin
(гПа)
dP
(гПа)
Po
(мм)
O2
(г/м3)
Тmin Tmax R s Состояние
почвы
21 15.08.17 050 (СВ) 3-5{05}  1000 м  морось{ливн. осадки}  10/10 60 м 
[St]
+13.2 +13.1 99 +18  1017.1  0.9  759  289  +12.8      влажная 
00 16.08.17 070 (В) 4-6{07}  2000 м  в посл. час туман{ливн. осадки, морось}  10/10 100 м 
[St]
+13.9 +13.8 99 +20  1017.5  0.4  760  288           
06 16.08.17 060 (СВ) 2-4{05}  20000 м  слаб. ливневой дождь  10/10 150 м кучево-дожд. 
[Cb cap]
+13.3 +12.9 97 +19  1017.7  760  289           
09 16.08.17 050 (СВ) 3-4{05}  20000 м  {ливн. осадки}  10/10 180 м кучево-дожд. 
[Cb cap]
+13.7 +13.1 96 +19  1017.6  0.1  760  289    +14  0.4     
12 16.08.17 080 (В) 1-2{05}  4000 м  дымка{ливн. осадки}  10/10 120 м кучево-дожд. 
[Cb cap]
+13 +12.8 99 +19  1017.6  760  290           
18 16.08.17 100 (В) 1-2{05}  20000 м  {ливн. осадки}  10/10 150 м кучево-дожд. 
[Cb cap]
+11.9 +11.7 99 +16  1018  0.2  760  291           
21 16.08.17 080 (В) 2-3{04}  4000 м  дымка  10/10 120 м 
[St]
+12 +11.7 98 +15  1018  760  291  +11.7    0.4    влажная 
00 17.08.17 080 (В) 3-5{06}  4000 м  дымка  10/10 240 м 
[St]
+14 +12.3 89 +18  1018.1  0.1  760  289           
06 17.08.17 080 (В) 3-5{07}  20000 м    10/10 500 м кучево-дожд. 
[Cb cap]
+15.7 +11.3 75 +19  1017  -0.8  759  287           
09 17.08.17 080 (В) 3-5{06}  20000 м    9/9 450 м кучево-дожд. 
[Cb cap]
+14.5 +11.6 83 +18  1016.7  -0.3  759  288    +16       
12 17.08.17 120 (ЮВ) 2-4{05}  20000 м    10/10 150 м 
[St]
+12.8 +12.3 97 +17  1016.8  0.1  759  290           
18 17.08.17 120 (ЮВ) 2-4{05}  20000 м    10/10 120 м 
[St]
+11.6 +11.4 99 +15  1015.9  -0.5  758  291           
21 17.08.17 150 (ЮВ) 2-4{05}  4000 м  в посл. час морось  10/10 120 м 
[St]
+11.7 +11.5 99 +15  1016  0.1  759  291  +11.6    0.0    влажная 
00 18.08.17 150 (ЮВ) 4-6{06}  20000 м  {морось}  10/10 240 м 
[St]
+14.2 +11.1 82 +16  1016.6  0.6  759  289           
06 18.08.17 130 (ЮВ) 4-7{07}  20000 м    9/9 700 м 
[Sc]
+16.1 +10.9 71 +18  1015.1  -0.7  758  286           
09 18.08.17 110 (В) 3-6{07}  20000 м    9/9 600 м 
[Sc]
+14.4 +11.4 82 +18  1015.4  0.3  758  288    +17.3       
12 18.08.17 120 (ЮВ) 2-4{06}  20000 м    9/9 900 м 
[Sc]
+13.3 +11.5 89 +17  1015.6  0.1  758  289           
18 18.08.17 150 (ЮВ) 2-3{05}  20000 м  в посл. час морось  10/10 120 м 
[St]
+12.8 +12.7 99 +18  1014.6  -0.6  758  289           
21 18.08.17 150 (ЮВ) 3-4{05}  0500 м  туман  ?/?  
+11.7 +11.6 99 +14  1014.8  0.2  758  291  +11.5    0.0    влажная 
00 19.08.17 140 (ЮВ) 4-6{06}  20000 м  {туман}  4/4 200 м 
[St]
+17.1 +12.1 72 +21  1014.5  -0.2  758  285           
06 19.08.17 130 (ЮВ) 5-8{08}  20000 м    3/3 600 м 
[Sc]
+20.5 +12.4 60 +25  1012.2  -1.1  756  281           
09 19.08.17 140 (ЮВ) 5-8{10}  20000 м    3/0 верхняя 
[Ci fib]
+17.4 +12.6 73 +22  1012  -0.3  756  284    +21.1       
12 19.08.17 160 (Ю) 3-4{08}  20000 м    3/0 верхняя 
[Ci fib]
+13.2 +12.8 97 +18  1012.9  0.8  756  288           
18 19.08.17 160 (Ю) 3-3{04}  20000 м    3/0 верхняя 
[Ci fib]
+10.5 +10.4 99 +12  1011.2  -1.5  755  291           
21 19.08.17 160 (Ю) 3-5{05}  20000 м  в посл. час туман  9/9 400 м 
[St]
+13.1 +12.9 99 +18  1010.3  -0.8  754  287  +9.6        влажная 
Время (UTC), дата Ветер
(°,м/с) 
Видим.   Явления Облачность Т
(°С)
Тd
(°С)
f(%) Тe
(°С)
Pmin
(гПа)
dP
(гПа)
Po
(мм)
O2
(г/м3)
Тmin Tmax R s Состояние
почвы

Для получения пояснительной информации подведите курсор к названию столбца.

ПОГОДА в Охе - архив

Всё, что Вы хотите узнать о погоде в Охе - удобно и подробно!

Выберите нужную дату (начиная с 1 января 2015* года) и нажмите кнопку "Найти".
Будут отображены архивные сводки погоды по пункту Оха, начиная с указанной даты.


Отображать данные в формате CSV (для использования в таблицах Excel)


Внимание! Наш архив погоды предназначен исключительно для личного некоммерческого использования в познавательных целях. Если Вам необходимы официальные справки о состоянии погоды (для производственных, юридических, коммерческих и т.п. целей), обращайтесь в органы Росгидромета.

*Примечание: данная дата относится к архиву по метеостанциям СССР (Россия, СНГ, Балтия).
Архив по метеостанциям Зарубежной Европы и Азии (кроме Китая) хранится 10 дней, по другим регионам земного шара (Китай, Африка, Америка, Австралия, Океания) - 1 день.

Оха - район местоположения метеостанции


Название, широта, долгота, высота метеостанции:
Оха 53.6°ш. 142.9°д. 8 м над ур. моря [Российская Федерация]

Дополнительная информация

В oтличие oт бoльшинства пoгoдных сайтoв мы публикуем пoдрoбную метеoинфoрмацию в детальнoм прoфессиoнальнoм фoрмате.

Характеристики температуры и влажнoсти вoздуха измеряются на высoте 2 м в тени вдали oт зданий и деревьев.
Скoрoсть ветра измеряется на высoте 10 м (на урoвне рoста челoвека скoрoсть ветра ниже в 1.5-2 раза). Если метеoстанция нахoдится в гoрoде или в лесу, тo скoрoсть ветра занижена на 2-4 м/с пo сравнению с oткрытым местoм. Скoрoсть ветра над акватoриями крупных рек и oзёр, а также на вершинах хoлмoв на 2-5 м/с выше, чем в oбычных услoвиях.
Атмoсфернoе давление в разных тoчках местнoсти мoжет значительнo oтличаться oт давления на метеoстанции, в зависимoсти oт услoвий рельефа (при пoдъёме на 10 м давление пoнижается примернo на 1 мм рт.ст.).